This is the latest recevied weather packets stored in our database for station/object EFHKFMI. If no packets are shown the sender has not sent any weather packets the latest 10 day(s).
| Time | Temp. | Humidity | Pressure | Rain* | Wind** | Luminosity | Snow |
|---|---|---|---|---|---|---|---|
| 1777644417 | 20.56° C | 25% | 1016.7 hPa | 0 mm | - | - | - |
| 1777643217 | 20.56° C | 25% | 1016.9 hPa | 0 mm | - | - | - |
| 1777642017 | 20.56° C | 24% | 1017.1 hPa | 0 mm | - | - | - |
| 1777640816 | 20.56° C | 28% | 1017.3 hPa | 0 mm | - | - | - |
| 1777639617 | 20.56° C | 28% | 1017.6 hPa | 0 mm | - | - | - |
| 1777638416 | 20° C | 30% | 1017.9 hPa | 0 mm | - | - | - |
| 1777637216 | 19.44° C | 31% | 1018.2 hPa | 0 mm | - | - | - |
| 1777636016 | 20° C | 32% | 1018.3 hPa | 0 mm | - | - | - |
| 1777634816 | 18.89° C | 32% | 1018.5 hPa | 0 mm | - | - | - |
| 1777633616 | 18.33° C | 35% | 1018.7 hPa | 0 mm | - | - | - |
| 1777632416 | 18.33° C | 36% | 1018.9 hPa | 0 mm | - | - | - |
| 1777631216 | 17.78° C | 34% | 1019.1 hPa | 0 mm | - | - | - |
| 1777630016 | 17.78° C | 38% | 1019.4 hPa | 0 mm | - | - | - |
| 1777628816 | 16.67° C | 41% | 1019.5 hPa | 0 mm | - | - | - |
| 1777627616 | 16.67° C | 42% | 1019.6 hPa | 0 mm | - | - | - |
| 1777626416 | 16.67° C | 42% | 1019.9 hPa | 0 mm | - | - | - |
| 1777625216 | 16.67° C | 43% | 1019.9 hPa | 0 mm | - | - | - |
| 1777624016 | 16.67° C | 44% | 1020.1 hPa | 0 mm | - | - | - |
| 1777622816 | 16.11° C | 46% | 1020.2 hPa | 0 mm | - | - | - |
| 1777621616 | 15.56° C | 46% | 1020.4 hPa | 0 mm | - | - | - |
| 1777620415 | 15° C | 47% | 1020.4 hPa | 0 mm | - | - | - |
| 1777619215 | 14.44° C | 50% | 1020.6 hPa | 0 mm | - | - | - |
| 1777618015 | 13.33° C | 56% | 1020.7 hPa | 0 mm | - | - | - |
| 1777616816 | 12.78° C | 60% | 1020.8 hPa | 0 mm | - | - | - |
| 1777615615 | 11.67° C | 64% | 1020.8 hPa | 0 mm | - | - | - |
* Rain latest hour (hover to see other rain measurements)
** Current wind speed in m/s (hover to see current wind gust speed)